Location: Peterborough
(44.3091°N, 78.3197°W)
Time: 14:52:02
(UTC-04:00)

Envisat - Pass Details

Date: 23 April 2026
Orbit: 761 x 762 km, 98.4° (Epoch: 17 May)

Event Time Altitude Azimuth Distance (km) Brightness Sun altitude
Rises 03:54:30 0° 13° (NNE) 3,234 7.2 -22.2°
Reaches altitude 10° 03:56:49 10° 14° (NNE) 2,303 6.3 -21.9°
Maximum altitude 04:01:54 86° 104° (ESE) 769 2.9 -21.2°
Enters shadow 04:03:46 40° 191° (S) 1,105 3.4 -21.0°
